Jerome, ID

11:06 AM MST on February 10, 2016 (GMT -0700)
Jerome County

Weather History for KJER - November, 2012

Change the Weather History Date:

Tuesday, November 13, 2012

  Actual Average Record
Temperature  
Mean Temperature 37 °F 38 °F  
Max Temperature 44 °F 47 °F 75 °F (1999)
Min Temperature 29 °F 29 °F 5 °F (1955)
Degree Days  
Heating Degree Days 28 27  
Month to date heating degree days 286 319  
Since 1 July heating degree days 800 1018  
Cooling Degree Days 0 0  
Month to date cooling degree days 0 0  
Year to date cooling degree days 750 510  
Moisture  
Dew Point 28 °F    
Average Humidity 71    
Maximum Humidity 85    
Minimum Humidity 57    
Precipitation  
Precipitation 0.00 in 0.03 in 0.61 in (1985)
Month to date precipitation 0.03 0.42  
Year to date precipitation 7.61 8.52  
Sea Level Pressure  
Sea Level Pressure 30.34 in    
Wind  
Wind Speed 14 mph (NE)    
Max Wind Speed 22 mph    
Max Gust Speed 25 mph    
Visibility 10 miles    
Events      
T = Trace of Precipitation, MM = Missing Value Source: NWS Daily Summary

Daily Weather History Graph

Daily Weather History Graph

Search for Another Location

Airport or City:

Trip Planner

Search our weather history database for the weather conditions in past years. The results will help you decide how hot, cold, wet, or windy it might be!

Date:

Astronomy

Nov. 13, 2012 Rise Set
Actual Time 7:27 AM MST 5:16 PM MST
Civil Twilight 6:57 AM MST 5:46 PM MST
Nautical Twilight 6:23 AM MST 6:20 PM MST
Astronomical Twilight 5:49 AM MST 6:53 PM MST
Moon 7:11 AM MST (11/13) 5:12 PM MST (11/13)
Length of Visible Light 10h 49m
Length of Day
9h 48m
Waning Crescent, 0% of the Moon is Illuminated
Nov 13
Waning Crescent
Nov 13
New
Nov 20
First Quarter
Nov 28
Full
Dec 6
Last Quarter

Hourly Weather History & Observations

Time (MST) Temp. Windchill Dew Point Humidity Pressure Visibility Wind Dir Wind Speed Gust Speed Precip Events Conditions
12:53 AM 30.0 °F 21.1 °F 27.0 °F 88% 30.42 in 10.0 mi NE 10.4 mph - N/A   Overcast
1:53 AM 30.0 °F 21.1 °F 27.0 °F 88% 30.41 in 10.0 mi NE 10.4 mph - N/A   Overcast
2:53 AM 30.0 °F 20.5 °F 27.0 °F 88% 30.42 in 10.0 mi NE 11.5 mph - N/A   Overcast
3:53 AM 30.0 °F 20.0 °F 27.0 °F 88% 30.41 in 10.0 mi NE 12.7 mph - N/A   Overcast
4:53 AM 30.9 °F 22.2 °F 27.0 °F 85% 30.40 in 10.0 mi NE 10.4 mph - N/A   Overcast
5:53 AM 30.9 °F 21.7 °F 27.0 °F 85% 30.42 in 10.0 mi NE 11.5 mph - N/A   Overcast
6:53 AM 30.9 °F 21.2 °F 27.0 °F 85% 30.40 in 10.0 mi NE 12.7 mph - N/A   Overcast
7:53 AM 30.9 °F 21.2 °F 27.0 °F 85% 30.40 in 10.0 mi NE 12.7 mph - N/A   Overcast
8:53 AM 33.1 °F 22.6 °F 28.0 °F 82% 30.41 in 10.0 mi NNE 16.1 mph - N/A   Overcast
9:06 AM 33.8 °F 24.8 °F 28.4 °F 81% 30.34 in 10.0 mi NE 12.7 mph - N/A   Overcast
9:35 AM 35.6 °F 26.6 °F 28.4 °F 75% 30.33 in 10.0 mi NNE 13.8 mph - N/A   Overcast
9:53 AM 36.0 °F 26.3 °F 28.0 °F 73% 30.40 in 10.0 mi NE 16.1 mph - N/A   Overcast
10:53 AM 39.9 °F 31.4 °F 28.9 °F 65% 30.39 in 10.0 mi NE 16.1 mph - N/A   Overcast
11:53 AM 41.0 °F 32.8 °F 28.9 °F 62% 30.37 in 10.0 mi NNE 16.1 mph - N/A   Overcast
12:53 PM 43.0 °F 35.4 °F 28.9 °F 58% 30.34 in 10.0 mi NE 16.1 mph - N/A   Overcast
1:53 PM 43.0 °F 35.4 °F 28.9 °F 58% 30.32 in 10.0 mi NE 16.1 mph 24.2 mph N/A   Overcast
2:53 PM 43.0 °F 35.1 °F 28.9 °F 58% 30.30 in 10.0 mi NE 17.3 mph - N/A   Overcast
3:53 PM 42.1 °F 33.9 °F 28.9 °F 60% 30.30 in 10.0 mi NE 17.3 mph - N/A   Overcast
4:53 PM 39.9 °F 31.1 °F 28.9 °F 65% 30.29 in 10.0 mi NE 17.3 mph - N/A   Overcast
5:53 PM 37.9 °F 29.2 °F 28.9 °F 70% 30.28 in 10.0 mi NNE 15.0 mph - N/A   Mostly Cloudy
6:53 PM 36.0 °F 26.3 °F 28.9 °F 76% 30.28 in 10.0 mi NE 16.1 mph - N/A   Partly Cloudy
7:53 PM 34.0 °F 24.2 °F 28.0 °F 79% 30.27 in 10.0 mi NE 15.0 mph - N/A   Clear
8:53 PM 34.0 °F 24.2 °F 28.0 °F 79% 30.27 in 10.0 mi NE 15.0 mph - N/A   Clear
9:53 PM 34.0 °F 24.6 °F 28.0 °F 79% 30.27 in 10.0 mi NE 13.8 mph - N/A   Clear
10:53 PM 34.0 °F 24.6 °F 28.9 °F 82% 30.26 in 10.0 mi NNE 13.8 mph - N/A   Overcast
11:53 PM 34.0 °F 25.0 °F 28.9 °F 82% 30.25 in 10.0 mi NNE 12.7 mph - N/A   Overcast